934  
ASGM40 PGUM 191010  
RWRGUM  
WEATHER ROUNDUP FOR THE MARIANAS  
NATIONAL WEATHER SERVICE TIYAN GU  
800 PM CHST FRI JUL 19 2019  
 
GUZ001>004-191100-  
MARIANA ISLANDS-  
 
CITY SKY/WX TMP DP RH WIND PRES REMARKS
 
GUAM AIRPORT CLEAR 81 75 83 CALM 29.83R  
ANDERSEN AFB DRIZZLE 81 77 89 E3 29.83R  
ROTA AIRPORT MOCLDY 79 75 89 E9 29.81R  
TINIAN AP MOCLDY 82 77 83 E3 29.80R HX 91  
SAIPAN AP CLEAR 82 77 83 E8 29.82R HX 91  
 

 
 
 
 
CLICK HERE TO GO TO PREVIOUS BULLETINS.

The Nexlab GU Page Main Text Page